Weather History for Pittsburg, KS

Change the Weather History Date:

Saturday, October 15, 2011

  Actual Average (KJLN) Record (KJLN)
Temperature  
Mean Temperature 57 °F 60 °F  
Max Temperature 77 °F 72 °F 88 °F (1950)
Min Temperature 37 °F 49 °F 32 °F (1986)
Degree Days  
Heating Degree Days 8 6  
Month to date heating degree days 76  
Since 1 July heating degree days 118  
Cooling Degree Days 0 1  
Month to date cooling degree days 33  
Year to date cooling degree days 1675  
Growing Degree Days 7 (Base 50)    
Moisture  
Dew Point 38 °F    
Average Humidity 57    
Maximum Humidity 100    
Minimum Humidity 21    
Precipitation  
Precipitation 0.00 in 0.12 in 2.44 in (1980)
Month to date precipitation 1.96  
Year to date precipitation 37.88  
Sea Level Pressure  
Sea Level Pressure 30.05 in    
Wind  
Wind Speed 3 mph (South)    
Max Wind Speed 12 mph    
Max Gust Speed 20 mph    
Visibility 10 miles    
Events      
T = Trace of Precipitation, MM = Missing Value Source: NWS Daily Summary

Daily Weather History Graph

Daily Weather History Graph

Search for Another Location

Airport:

Trip Planner

Search our weather history database for the weather conditions in past years. The results will help you decide how hot, cold, wet, or windy it might be!

Date:

Astronomy

Oct. 15, 2011 Rise Set
Actual Time 7:26 AM CDT 6:42 PM CDT
Civil Twilight 7:00 AM CDT 7:08 PM CDT
Nautical Twilight 6:30 AM CDT 7:38 PM CDT
Astronomical Twilight 5:59 AM CDT 8:08 PM CDT
Moon 8:44 PM CDT 10:46 AM CDT
Length of Visible Light 12h 07m
Length of Day
11h 15m
Waning Gibbous, 89% of the Moon is Illuminated
Oct 15
Waning Gibbous
Oct 19
Last Quarter
Oct 26
New
Nov 2
First Quarter
Nov 10
Full

Hourly Weather History & Observations

Time (CDT) Temp. Dew Point Humidity Pressure Visibility Wind Dir Wind Speed Gust Speed Precip Events Conditions
12:15 AM 46.4 °F 38.1 °F 73% 30.07 in 10.0 mi Calm Calm - N/A   Clear
12:35 AM 45.3 °F 37.8 °F 75% 30.07 in 10.0 mi Calm Calm - N/A   Clear
1:15 AM 44.1 °F 38.3 °F 80% 30.08 in 10.0 mi Calm Calm - N/A   Clear
1:35 AM 43.2 °F 38.3 °F 83% 30.08 in 10.0 mi Calm Calm - N/A   Clear
1:55 AM 42.1 °F 38.8 °F 88% 30.08 in 10.0 mi Calm Calm - N/A   Clear
2:15 AM 42.3 °F 37.9 °F 85% 30.08 in 10.0 mi Calm Calm - N/A   Clear
2:35 AM 42.1 °F 37.8 °F 85% 30.09 in 10.0 mi Calm Calm - N/A   Clear
2:55 AM 41.4 °F 39.4 °F 93% 30.09 in 10.0 mi Calm Calm - N/A   Clear
3:15 AM 40.8 °F 39.9 °F 97% 30.09 in 10.0 mi Calm Calm - N/A   Clear
3:35 AM 40.5 °F 39.9 °F 98% 30.09 in 10.0 mi Calm Calm - N/A   Clear
3:55 AM 40.5 °F 40.5 °F 100% 30.09 in 10.0 mi Calm Calm - N/A   Clear
4:15 AM 40.1 °F 40.1 °F 100% 30.10 in 10.0 mi Calm Calm - N/A   Clear
4:55 AM 39.2 °F 39.4 °F 100% 30.09 in 10.0 mi Calm Calm - N/A   Clear
5:15 AM 39.2 °F 39.4 °F 100% 30.10 in 10.0 mi Calm Calm - N/A   Clear
5:35 AM 39.2 °F 39.4 °F 100% 30.11 in 10.0 mi Calm Calm - N/A   Clear
5:55 AM 39.2 °F 39.4 °F 100% 30.11 in 10.0 mi Calm Calm - N/A   Clear
6:15 AM 39.2 °F 39.4 °F 100% 30.11 in 10.0 mi Calm Calm - N/A   Clear
6:35 AM 39.2 °F 39.4 °F 100% 30.11 in 10.0 mi Calm Calm - N/A   Clear
6:55 AM 39.2 °F 39.4 °F 100% 30.11 in 10.0 mi Calm Calm - N/A   Clear
7:15 AM 39.2 °F 39.4 °F 100% 30.11 in 10.0 mi Calm Calm - N/A   Clear
7:35 AM 37.6 °F 37.8 °F 100% 30.13 in 10.0 mi Calm Calm - N/A   Clear
8:15 AM - - N/A% 30.14 in 10.0 mi Calm Calm - N/A   Clear
8:35 AM 42.8 °F 42.8 °F 100% 30.14 in 10.0 mi Calm Calm - N/A   Clear
8:55 AM 47.8 °F 45.3 °F 91% 30.15 in 10.0 mi Calm Calm - N/A   Clear
9:15 AM 50.5 °F 40.3 °F 68% 30.15 in 10.0 mi Calm Calm - N/A   Clear
9:35 AM 54.1 °F 39.0 °F 57% 30.15 in 10.0 mi ESE 3.5 mph - N/A   Clear
9:55 AM 56.7 °F 34.7 °F 44% 30.15 in 10.0 mi SE 5.8 mph - N/A   Clear
10:15 AM 58.8 °F 32.5 °F 37% 30.14 in 10.0 mi SE 9.2 mph - N/A   Clear
10:35 AM 60.1 °F 31.5 °F 34% 30.12 in 10.0 mi SSE 9.2 mph - N/A   Clear
10:55 AM 61.7 °F 30.9 °F 31% 30.11 in 10.0 mi SSE 8.1 mph - N/A   Clear
11:35 AM 65.5 °F 30.7 °F 27% 30.11 in 10.0 mi SSE 6.9 mph - N/A   Clear
11:55 AM 67.6 °F 32.4 °F 27% 30.10 in 10.0 mi South 4.6 mph - N/A   Clear
12:35 PM 69.4 °F 31.6 °F 25% 30.09 in 10.0 mi South 6.9 mph - N/A   Clear
12:55 PM 70.0 °F 31.5 °F 24% 30.09 in 10.0 mi SSW 3.5 mph - N/A   Clear
1:15 PM 71.4 °F 32.2 °F 24% 30.08 in 10.0 mi SSW 6.9 mph - N/A   Clear
1:35 PM 73.8 °F 33.3 °F 23% 30.06 in 10.0 mi South 8.1 mph - N/A   Clear
1:55 PM 74.5 °F 32.7 °F 22% 30.05 in 10.0 mi SSW 10.4 mph 16.1 mph N/A   Clear
2:15 PM 74.5 °F 32.0 °F 21% 30.03 in 10.0 mi South 5.8 mph - N/A   Clear
2:35 PM 74.8 °F 32.2 °F 21% 30.03 in 10.0 mi SW 11.5 mph 19.6 mph N/A   Clear
2:55 PM 75.7 °F 33.4 °F 21% 30.02 in 10.0 mi South 11.5 mph - N/A   Clear
3:15 PM 76.6 °F 34.2 °F 21% 30.01 in 10.0 mi SSW 10.4 mph - N/A   Clear
3:35 PM 77.0 °F 35.6 °F 22% 30.01 in 10.0 mi SSW 10.4 mph - N/A   Clear
3:55 PM 77.0 °F 35.8 °F 22% 30.00 in 10.0 mi SSW 11.5 mph - N/A   Clear
4:15 PM 77.0 °F 36.1 °F 23% 30.00 in 10.0 mi SSW 10.4 mph 18.4 mph N/A   Clear
4:35 PM 77.0 °F 36.9 °F 23% 29.99 in 10.0 mi SSW 11.5 mph 18.4 mph N/A   Clear
4:55 PM 77.0 °F 37.4 °F 24% 29.98 in 10.0 mi SSW 11.5 mph - N/A   Clear
5:15 PM 77.0 °F 38.8 °F 25% 29.98 in 10.0 mi South 11.5 mph - N/A   Clear
5:35 PM 75.7 °F 39.0 °F 27% 29.97 in 10.0 mi South 9.2 mph 16.1 mph N/A   Clear
5:55 PM 74.5 °F 39.6 °F 28% 29.97 in 10.0 mi South 9.2 mph - N/A   Clear
6:15 PM 74.5 °F 41.4 °F 30% 29.97 in 10.0 mi South 8.1 mph - N/A   Clear
6:35 PM 72.1 °F 41.2 °F 33% 29.96 in 10.0 mi SSW 6.9 mph - N/A   Clear
6:55 PM 69.6 °F 41.0 °F 35% 29.96 in 10.0 mi SSW 5.8 mph - N/A   Clear
7:15 PM 68.5 °F 43.0 °F 40% 29.96 in 10.0 mi South 4.6 mph - N/A   Clear
7:35 PM 67.1 °F 42.8 °F 41% 29.96 in 10.0 mi South 5.8 mph - N/A   Clear
7:55 PM 64.9 °F 43.0 °F 45% 29.96 in 10.0 mi South 6.9 mph - N/A   Clear
8:15 PM 64.4 °F 43.5 °F 47% 29.95 in 10.0 mi South 8.1 mph - N/A   Clear
8:35 PM 64.4 °F 44.4 °F 48% 29.95 in 10.0 mi South 8.1 mph - N/A   Clear
8:55 PM 64.4 °F 44.8 °F 49% 29.94 in 10.0 mi South 9.2 mph - N/A   Clear
9:15 PM 64.4 °F 44.6 °F 49% 29.94 in 10.0 mi South 9.2 mph - N/A   Clear
9:35 PM 64.4 °F 44.4 °F 48% 29.94 in 10.0 mi SSW 9.2 mph - N/A   Clear
9:55 PM 64.4 °F 44.6 °F 49% 29.94 in 10.0 mi SSW 11.5 mph - N/A   Clear
10:15 PM 66.2 °F 45.1 °F 47% 29.94 in 10.0 mi SSW 11.5 mph - N/A   Clear
10:35 PM 67.1 °F 45.0 °F 45% 29.94 in 10.0 mi SSW 12.7 mph 18.4 mph N/A   Clear
10:55 PM 67.1 °F 45.1 °F 45% 29.94 in 10.0 mi SSW 15.0 mph 19.6 mph N/A   Clear
11:15 PM 66.0 °F 44.2 °F 45% 29.94 in 10.0 mi SSW 13.8 mph 19.6 mph N/A   Clear
11:35 PM 64.4 °F 43.3 °F 46% 29.94 in 10.0 mi SSW 10.4 mph - N/A   Clear
11:55 PM 64.4 °F 43.7 °F 47% 29.94 in 10.0 mi SSW 11.5 mph 16.1 mph N/A   Clear